GW4136 Weather Reports


time (UTC)temp
C
wind
direction
speed
KPH
gust
KPH
rain 1hr
cm
rain 24hr
cm
rain mn
cm
humidity
%
barometer
mb
20260505184103 11 217 0.0 4.8 0.00 0.00 0.00 74 1015.5
20260505183104 11 206 0.0 3.2 0.00 0.00 0.00 74 1015.6
20260505182605 11 249 1.6 4.8 0.00 0.00 0.00 73 1015.5
20260505182104 11 168 1.6 9.7 0.00 0.00 0.00 73 1015.5
20260505181604 12 214 1.6 4.8 0.00 0.00 0.00 72 1015.4
20260505181104 12 276 0.0 8.0 0.00 0.00 0.00 72 1015.4
20260505180604 12 270 1.6 4.8 0.00 0.00 0.00 72 1015.4
20260505180105 12 210 0.0 4.8 0.00 0.00 0.00 72 1015.4
20260505175604 12 228 1.6 4.8 0.00 0.00 0.00 72 1015.5
20260505175103 12 197 3.2 9.7 0.00 0.00 0.00 72 1015.3
20260505174605 12 196 1.6 11.3 0.00 0.00 0.00 72 1015.3
20260505174105 12 178 0.0 4.8 0.00 0.00 0.00 70 1015.4
20260505173605 12 205 3.2 12.9 0.00 0.00 0.00 69 1015.4
20260505173105 12 237 1.6 4.8 0.00 0.00 0.00 69 1015.3
20260505172605 12 168 0.0 4.8 0.00 0.00 0.00 69 1015.4
20260505172104 12 232 1.6 9.7 0.00 0.00 0.00 69 1015.3
20260505171605 12 224 1.6 4.8 0.00 0.00 0.00 71 1015.3
20260505165602 12 172 1.6 8.0 0.00 0.00 0.00 70 1015.4
20260505165104 12 168 1.6 4.8 0.00 0.00 0.00 70 1015.3
20260505164104 12 239 1.6 8.0 0.00 0.00 0.00 69 1015.3
20260505163604 12 281 1.6 4.8 0.00 0.00 0.00 68 1015.3
20260505162605 13 201 1.6 9.7 0.00 0.00 0.00 69 1015.2
20260505162104 13 193 0.0 3.2 0.00 0.00 0.00 69 1015.2
20260505161104 13 214 1.6 4.8 0.00 0.00 0.00 65 1015.2
20260505160605 13 234 0.0 8.0 0.00 0.00 0.00 65 1015.2
20260505160105 13 169 1.6 9.7 0.00 0.00 0.00 66 1015.3
20260505153103 13 218 1.6 4.8 0.00 0.00 0.00 67 1015.4
20260505152604 13 283 1.6 8.0 0.00 0.00 0.00 66 1015.4
20260505152105 13 264 3.2 9.7 0.00 0.00 0.00 66 1015.4
20260505151602 13 183 1.6 4.8 0.00 0.00 0.00 68 1015.5
20260505151105 13 210 0.0 4.8 0.00 0.00 0.00 68 1015.5
20260505150604 13 194 0.0 4.8 0.00 0.00 0.00 67 1015.5
20260505150105 13 247 1.6 8.0 0.00 0.00 0.00 66 1015.5
20260505140105 16 264 3.2 4.8 0.00 0.00 0.00 55 1015.6
20260505130105 13 183 1.6 14.5 0.00 0.00 0.00 66 1015.8
20260505124605 15 195 3.2 9.7 0.00 0.00 0.00 61 1015.6
20260505124105 15 177 1.6 8.0 0.00 0.00 0.00 61 1015.6
20260505123605 15 169 1.6 8.0 0.00 0.00 0.00 61 1015.5
20260505123105 14 201 1.6 9.7 0.00 0.00 0.00 60 1015.6
20260505122605 15 213 1.6 8.0 0.00 0.00 0.00 59 1015.6
20260505122105 14 189 1.6 11.3 0.00 0.00 0.00 61 1015.7
20260505121604 14 259 1.6 4.8 0.00 0.00 0.00 62 1015.8
20260505121105 13 219 1.6 9.7 0.00 0.00 0.00 62 1015.9
20260505120605 13 228 1.6 8.0 0.00 0.00 0.00 64 1016.0
20260505120106 13 171 1.6 8.0 0.00 0.00 0.00 65 1015.9
20260505115605 13 250 4.8 9.7 0.00 0.00 0.00 64 1015.9
20260505115105 13 225 1.6 9.7 0.00 0.00 0.00 66 1015.9
20260505114605 12 194 1.6 11.3 0.00 0.00 0.00 65 1016.0
20260505114105 13 235 1.6 12.9 0.00 0.00 0.00 65 1016.0
20260505113108 13 201 1.6 4.8 0.00 0.00 0.00 65 1015.8
20260505112606 13 206 3.2 19.3 0.00 0.00 0.00 63 1015.9
20260505112106 14 181 1.6 11.3 0.00 0.00 0.00 63 1016.0
20260505111105 14 201 3.2 8.0 0.00 0.00 0.00 58 1015.9
20260505110605 14 233 0.0 4.8 0.00 0.00 0.00 60 1015.9
20260505110105 14 235 1.6 8.0 0.00 0.00 0.00 58 1016.0
20260505102105 13 186 0.0 8.0 0.00 0.00 0.00 64 1016.3
20260505101605 13 179 1.6 4.8 0.00 0.00 0.00 64 1016.3
20260505100605 12 198 1.6 4.8 0.00 0.00 0.00 66 1016.3
20260505100105 12 215 0.0 4.8 0.00 0.00 0.00 65 1016.4
20260505095605 12 211 1.6 11.3 0.00 0.00 0.00 65 1016.5
20260505095105 13 265 3.2 9.7 0.00 0.00 0.00 64 1016.5
20260505094105 13 248 1.6 4.8 0.00 0.00 0.00 65 1016.4
20260505093104 13 265 1.6 11.3 0.00 0.00 0.00 65 1016.4
20260505092605 13 237 1.6 4.8 0.00 0.00 0.00 67 1016.3
20260505092105 13 245 3.2 11.3 0.00 0.00 0.00 66 1016.3
20260505091605 13 245 1.6 8.0 0.00 0.00 0.00 68 1016.3
20260505091105 13 189 1.6 14.5 0.00 0.00 0.00 68 1016.4
20260505090605 12 268 1.6 8.0 0.00 0.00 0.00 69 1016.3
20260505085605 12 279 1.6 8.0 0.00 0.00 0.00 70 1016.3
20260505085105 12 256 3.2 14.5 0.00 0.00 0.00 70 1016.4
20260505084605 12 270 1.6 11.3 0.00 0.00 0.00 71 1016.4
20260505083606 12 193 1.6 11.3 0.00 0.00 0.00 74 1016.4
20260505083105 12 239 4.8 12.9 0.00 0.00 0.00 73 1016.5
20260505082605 11 239 3.2 11.3 0.00 0.00 0.00 73 1016.4
20260505082106 12 257 1.6 8.0 0.00 0.00 0.00 74 1016.5
20260505081606 12 234 3.2 9.7 0.00 0.00 0.00 74 1016.6
20260505081105 12 232 0.0 8.0 0.00 0.00 0.00 75 1016.7
20260505080606 11 226 1.6 9.7 0.00 0.00 0.00 74 1016.7
20260505080105 11 268 1.6 8.0 0.00 0.00 0.00 76 1016.7
20260505075605 11 168 1.6 9.7 0.00 0.00 0.00 76 1016.6
20260505075105 11 267 1.6 4.8 0.00 0.00 0.00 77 1016.7
20260505074605 11 147 0.0 3.2 0.00 0.00 0.00 79 1016.6
20260505073605 10 207 1.6 4.8 0.00 0.00 0.00 82 1016.6
20260505073105 10 208 1.6 4.8 0.00 0.00 0.00 83 1016.6
20260505071605 8 244 0.0 4.8 0.00 0.00 0.00 87 1016.7
20260505071105 8 219 0.0 4.8 0.00 0.00 0.00 87 1016.7
20260505070605 8 237 0.0 4.8 0.00 0.00 0.00 88 1016.7
20260505070106 8 209 0.0 4.8 0.00 0.00 0.00 88 1016.8
20260505065605 8 221 0.0 3.2 0.00 0.00 0.00 88 1016.8
20260505065106 8 171 0.0 1.6 0.00 0.00 0.00 89 1016.8
20260505064605 8 189 0.0 1.6 0.00 0.00 0.00 89 1016.8
20260505063605 8 206 0.0 1.6 0.00 0.00 0.00 89 1016.9
20260505063105 8 204 0.0 3.2 0.00 0.00 0.00 89 1016.8
20260505062605 8 183 0.0 4.8 0.00 0.00 0.00 90 1016.8
20260505062106 8 159 0.0 4.8 0.00 0.00 0.00 90 1016.8
20260505061605 7 115 0.0 3.2 0.00 0.00 0.00 90 1016.7
20260505061105 7 150 0.0 1.6 0.00 0.00 0.00 90 1016.7
20260505060605 7 199 0.0 1.6 0.00 0.00 0.00 90 1016.6
20260505060106 7 160 0.0 1.6 0.00 0.00 0.00 90 1016.5
20260505055605 7 193 0.0 1.6 0.00 0.00 0.00 91 1016.6
20260505055105 7 162 0.0 0.0 0.00 0.00 0.00 91 1016.5
20260505054605 7 196 0.0 1.6 0.00 0.00 0.00 91 1016.6
20260505054105 7 107 0.0 0.0 0.00 0.00 0.00 91 1016.5
20260505053605 7 165 0.0 0.0 0.00 0.00 0.00 92 1016.5
20260505053105 7 199 0.0 1.6 0.00 0.00 0.00 92 1016.5
20260505052606 7 195 0.0 3.2 0.00 0.00 0.00 92 1016.4
20260505052106 7 194 0.0 1.6 0.00 0.00 0.00 93 1016.5
20260505051606 7 203 0.0 1.6 0.00 0.00 0.00 93 1016.4
20260505051105 7 212 0.0 0.0 0.00 0.00 0.00 93 1016.4
20260505050605 7 212 0.0 1.6 0.00 0.00 0.00 93 1016.4
20260505050106 7 212 0.0 0.0 0.00 0.00 0.00 93 1016.4
20260505041606 7 253 0.0 0.0 0.00 0.00 0.00 93 1016.5
20260505041105 6 253 0.0 0.0 0.00 0.00 0.00 93 1016.5
20260505040606 6 253 0.0 0.0 0.00 0.00 0.00 93 1016.5
20260505035605 6 253 0.0 0.0 0.00 0.00 0.00 93 1016.4
20260505035106 6 253 0.0 0.0 0.00 0.00 0.00 92 1016.3
20260505034106 6 253 0.0 0.0 0.00 0.00 0.00 92 1016.3
20260505033605 6 253 0.0 0.0 0.00 0.00 0.00 91 1016.3
20260505033106 6 253 0.0 0.0 0.00 0.00 0.00 91 1016.4
20260505032605 6 253 0.0 0.0 0.00 0.00 0.00 91 1016.5
20260505032106 6 253 0.0 0.0 0.00 0.00 0.00 91 1016.5
20260505031606 6 253 0.0 0.0 0.00 0.00 0.00 90 1016.5
20260505031105 6 253 0.0 0.0 0.00 0.00 0.00 90 1016.6
20260505025606 6 271 0.0 0.0 0.00 0.00 0.00 89 1016.6
20260505025106 6 271 0.0 0.0 0.00 0.00 0.00 89 1016.6
20260505024606 7 271 0.0 0.0 0.00 0.00 0.00 89 1016.6
20260505024106 7 271 0.0 0.0 0.00 0.00 0.00 89 1016.6
20260505023606 7 271 0.0 0.0 0.00 0.00 0.00 89 1016.7
20260505023107 7 271 0.0 0.0 0.00 0.00 0.00 88 1016.7
20260505022606 7 200 0.0 0.0 0.00 0.00 0.00 89 1016.7
20260505022106 7 194 0.0 4.8 0.00 0.00 0.00 89 1016.7
20260505021606 7 203 0.0 1.6 0.00 0.00 0.00 89 1016.8
20260505020107 7 173 0.0 0.0 0.00 0.00 0.00 90 1016.9
20260505015606 7 150 0.0 0.0 0.00 0.00 0.00 90 1016.8
20260505015106 7 232 0.0 1.6 0.00 0.00 0.00 91 1016.8
20260505014105 7 145 0.0 3.2 0.00 0.00 0.00 91 1016.8
20260505013606 7 170 0.0 1.6 0.00 0.00 0.00 92 1016.8
20260505013106 7 307 0.0 1.6 0.00 0.00 0.00 92 1016.9
20260505012606 7 154 0.0 0.0 0.00 0.00 0.00 92 1016.9
20260505012106 7 224 0.0 0.0 0.00 0.00 0.00 91 1017.0
20260505011606 7 224 0.0 0.0 0.00 0.00 0.00 91 1017.1
20260505011106 7 224 0.0 0.0 0.00 0.00 0.00 91 1017.0
20260505010606 8 224 0.0 0.0 0.00 0.00 0.00 91 1017.1
20260505010107 8 224 0.0 0.0 0.00 0.00 0.00 91 1017.1
20260505005606 8 224 0.0 0.0 0.00 0.00 0.00 91 1017.0
20260505005106 8 224 0.0 0.0 0.00 0.00 0.00 91 1017.0
20260505004607 8 224 0.0 0.0 0.00 0.00 0.00 90 1017.0
20260505004106 8 224 0.0 0.0 0.00 0.00 0.00 90 1017.1
20260505003606 8 224 0.0 0.0 0.00 0.00 0.00 90 1017.1
20260505003105 8 224 0.0 0.0 0.00 0.00 0.00 90 1017.1
20260505002606 8 224 0.0 0.0 0.00 0.00 0.00 90 1017.2
20260505001106 9 224 0.0 0.0 0.00 0.00 0.00 90 1017.3
20260505000606 9 224 0.0 1.6 0.00 0.00 0.00 91 1017.2
20260505000106 9 240 0.0 4.8 0.00 0.00 0.00 91 1017.3
20260504235106 9 257 0.0 1.6 0.00 0.00 0.00 92 1017.5
20260504234106 9 255 0.0 0.0 0.00 0.00 0.00 92 1017.5
20260504233606 8 255 0.0 0.0 0.00 0.00 0.00 92 1017.5
20260504233106 8 255 0.0 0.0 0.00 0.00 0.00 92 1017.5
20260504232606 9 255 0.0 0.0 0.00 0.00 0.00 92 1017.5
20260504232106 9 255 0.0 0.0 0.00 0.00 0.00 92 1017.5
20260504231606 9 255 0.0 1.6 0.00 0.00 0.00 92 1017.5
20260504231106 9 255 0.0 0.0 0.00 0.00 0.00 92 1017.6
20260504230106 9 195 0.0 0.0 0.00 0.00 0.00 92 1017.6
20260504225606 9 195 0.0 0.0 0.00 0.00 0.00 92 1017.6
20260504225105 9 195 0.0 0.0 0.00 0.00 0.00 92 1017.6
20260504224605 9 177 0.0 1.6 0.00 0.00 0.00 92 1017.6
20260504222604 8 281 0.0 0.0 0.00 0.00 0.00 91 1017.7
20260504222104 8 281 0.0 0.0 0.00 0.00 0.00 91 1017.7
20260504221605 8 281 0.0 0.0 0.00 0.00 0.00 91 1017.7
20260504220604 8 281 0.0 0.0 0.00 0.00 0.00 90 1017.8
20260504220105 8 281 0.0 0.0 0.00 0.00 0.00 90 1017.8
20260504215605 8 281 0.0 0.0 0.00 0.00 0.00 89 1017.9
20260504215105 8 281 0.0 0.0 0.00 0.00 0.00 89 1017.8
20260504214605 8 281 0.0 0.0 0.00 0.00 0.00 89 1017.8
20260504214105 8 281 0.0 0.0 0.00 0.00 0.00 88 1017.8
20260504213605 8 281 0.0 0.0 0.00 0.00 0.00 88 1017.8
20260504213105 8 281 0.0 0.0 0.00 0.00 0.00 88 1017.8
20260504212604 9 281 0.0 0.0 0.00 0.00 0.00 88 1017.7
20260504212105 9 281 0.0 0.0 0.00 0.00 0.00 87 1017.7
20260504210105 10 281 0.0 0.0 0.00 0.00 0.00 86 1017.6
20260504205604 10 281 0.0 0.0 0.00 0.00 0.00 85 1017.6
20260504205104 10 281 0.0 0.0 0.00 0.00 0.00 85 1017.5
20260504204604 11 281 0.0 0.0 0.00 0.00 0.00 85 1017.5
20260504203605 11 281 0.0 0.0 0.00 0.00 0.00 84 1017.5
20260504203104 11 281 0.0 0.0 0.00 0.00 0.00 84 1017.6
20260504202605 11 275 0.0 0.0 0.00 0.00 0.00 84 1017.7
20260504202105 11 272 0.0 0.0 0.00 0.00 0.00 83 1017.6
20260504201605 11 272 0.0 1.6 0.00 0.00 0.00 83 1017.5
20260504200604 12 265 0.0 1.6 0.00 0.00 0.00 83 1017.4
20260504195604 12 265 0.0 1.6 0.00 0.00 0.00 82 1017.4
20260504195104 12 245 1.6 4.8 0.00 0.00 0.00 82 1017.4
20260504194604 12 267 0.0 4.8 0.00 0.00 0.00 82 1017.4
20260504193105 12 238 0.0 3.2 0.00 0.00 0.00 82 1017.2
20260504192604 12 285 0.0 3.2 0.00 0.00 0.00 82 1017.2
20260504192104 12 249 0.0 1.6 0.00 0.00 0.00 82 1017.2
20260504191604 12 247 0.0 1.6 0.00 0.00 0.00 82 1017.1
20260504191104 12 323 0.0 1.6 0.00 0.00 0.00 81 1017.0
20260504190604 12 264 0.0 1.6 0.00 0.00 0.00 81 1017.1
20260504190105 12 254 0.0 3.2 0.00 0.00 0.00 81 1017.0
20260504185604 12 238 0.0 1.6 0.00 0.00 0.00 81 1017.0
20260504185104 12 266 0.0 4.8 0.00 0.00 0.00 81 1016.9
20260504184604 12 257 0.0 3.2 0.00 0.00 0.00 81 1016.9